GEFSCGP_prec_meanprecacc_360.txt.gz
Total_Precipitation_Accumulation
0.98 1.57 1.88 1.74 1.73 1.68 1.47 1.42 1.29 1.10 1.06 1.13 1.06 1.07 1.11 1.12 1.11 0.98 0.85 0.72 0.70 0.69 0.65 0.62 0.60 0.62 0.67 0.74 0.80 0.93 1.07 1.27 1.37 1.41 1.52 1.73 1.88 2.01 2.10 2.14 1.99 1.86 1.82 1.95
1.07 1.40 1.07 0.97 1.16 1.21 1.30 1.33 1.16 1.00 0.84 0.88 0.92 0.96 0.99 0.94 0.93 0.82 0.72 0.65 0.57 0.52 0.49 0.45 0.40 0.44 0.47 0.48 0.54 0.66 0.83 0.94 1.09 1.29 1.57 1.79 2.04 2.07 2.13 2.18 2.19 2.10 2.03 2.16
1.15 1.01 0.71 0.82 1.04 1.09 1.12 1.16 1.05 0.97 0.86 0.79 0.79 0.97 0.91 0.84 0.80 0.73 0.60 0.52 0.44 0.37 0.33 0.27 0.27 0.34 0.41 0.40 0.43 0.54 0.68 0.84 1.08 1.33 1.70 1.99 2.27 2.37 2.43 2.38 2.40 2.38 2.36 2.38
1.04 0.76 0.70 0.87 0.93 0.97 1.10 0.80 0.75 0.76 0.94 0.98 0.81 1.13 0.84 0.69 0.68 0.62 0.54 0.49 0.42 0.35 0.32 0.30 0.28 0.28 0.32 0.36 0.44 0.58 0.79 1.02 1.32 1.64 2.00 2.28 2.57 2.73 2.57 2.56 2.56 2.51 2.39 2.37
0.89 0.70 0.69 0.83 0.69 0.67 0.77 0.64 0.76 0.81 0.85 0.82 0.63 0.82 0.74 0.59 0.65 0.58 0.49 0.47 0.50 0.47 0.38 0.36 0.37 0.38 0.42 0.49 0.59 0.78 1.06 1.37 1.68 1.95 2.13 2.39 2.52 2.54 2.50 2.44 2.43 2.34 2.30 2.26
0.65 0.55 0.59 0.59 0.52 0.53 0.59 0.71 0.85 0.87 0.94 0.99 0.55 0.66 0.77 0.59 0.56 0.54 0.48 0.42 0.41 0.45 0.41 0.41 0.46 0.54 0.62 0.70 0.87 1.06 1.24 1.55 1.74 1.91 2.05 2.21 2.35 2.39 2.36 2.35 2.39 2.37 2.32 2.22
0.61 0.50 0.43 0.39 0.49 0.51 0.59 1.03 1.39 1.40 1.31 0.98 0.47 0.69 0.81 0.60 0.48 0.42 0.43 0.42 0.38 0.42 0.47 0.49 0.62 0.78 0.85 0.90 1.03 1.21 1.29 1.50 1.62 1.69 1.82 1.96 2.00 2.02 2.04 2.04 2.05 1.97 1.91 1.89
0.65 0.62 0.42 0.36 0.46 0.55 0.55 0.85 1.40 1.50 1.26 0.92 0.65 0.95 0.87 0.63 0.49 0.45 0.45 0.44 0.46 0.55 0.65 0.76 0.91 1.00 1.08 1.11 1.11 1.17 1.32 1.36 1.38 1.46 1.47 1.55 1.62 1.67 1.73 1.71 1.71 1.76 1.79 1.81
0.56 0.55 0.35 0.29 0.31 0.43 0.56 0.62 0.70 1.00 0.92 0.95 0.90 1.09 1.01 0.63 0.51 0.50 0.50 0.50 0.56 0.70 0.91 1.16 1.36 1.46 1.53 1.47 1.31 1.18 1.21 1.22 1.21 1.31 1.36 1.40 1.46 1.49 1.51 1.53 1.45 1.56 1.58 1.58
0.43 0.53 0.41 0.31 0.35 0.38 0.47 0.64 0.82 1.21 1.39 1.34 1.20 1.34 1.31 0.87 0.68 0.60 0.63 0.70 0.81 1.02 1.35 1.64 1.91 2.09 2.06 1.85 1.60 1.37 1.20 1.13 1.11 1.17 1.27 1.35 1.38 1.38 1.34 1.38 1.29 1.32 1.41 1.41
0.36 0.54 0.49 0.42 0.45 0.48 0.51 0.71 0.90 1.16 1.20 1.50 1.69 1.68 1.37 1.15 0.94 0.87 0.96 1.15 1.32 1.58 1.81 1.99 2.17 2.30 2.10 1.91 1.64 1.37 1.19 1.18 1.21 1.25 1.31 1.33 1.29 1.27 1.24 1.19 1.14 1.18 1.25 1.25
0.32 0.49 0.56 0.37 0.32 0.39 0.63 0.90 1.17 1.60 1.47 1.38 1.70 1.78 1.27 1.08 1.05 1.06 1.17 1.26 1.40 1.53 1.56 1.67 1.77 1.79 1.83 1.79 1.61 1.42 1.28 1.27 1.31 1.37 1.41 1.35 1.29 1.25 1.21 1.17 1.09 1.07 1.02 1.00
0.45 0.66 0.77 0.70 0.70 0.70 0.78 0.84 0.94 1.16 1.31 1.34 1.68 1.76 1.17 0.99 0.95 1.08 1.25 1.30 1.40 1.42 1.34 1.34 1.39 1.49 1.59 1.61 1.52 1.50 1.45 1.46 1.47 1.44 1.33 1.27 1.21 1.14 1.10 1.01 0.97 0.99 0.98 1.04
0.44 0.68 0.81 0.93 0.87 0.77 0.82 0.80 0.74 0.88 1.24 1.25 1.42 1.42 1.18 1.12 1.03 1.06 1.18 1.29 1.24 1.14 1.06 1.06 1.15 1.26 1.35 1.37 1.40 1.38 1.36 1.40 1.52 1.60 1.50 1.37 1.26 1.17 1.13 1.04 0.96 0.93 0.96 1.06
0.36 0.42 0.40 0.38 0.35 0.45 0.67 0.78 0.76 0.76 0.82 1.09 1.11 1.04 1.00 0.97 0.95 0.90 0.91 0.91 0.84 0.77 0.77 0.80 0.85 0.87 0.85 0.84 0.93 0.99 1.09 1.23 1.40 1.56 1.57 1.46 1.28 1.15 1.09 1.04 0.97 0.94 0.94 0.97
0.31 0.33 0.29 0.29 0.25 0.33 0.49 0.59 0.61 0.59 0.59 0.69 0.78 0.80 0.69 0.65 0.67 0.67 0.69 0.64 0.61 0.57 0.54 0.52 0.52 0.52 0.50 0.48 0.49 0.53 0.64 0.82 1.07 1.35 1.38 1.23 1.09 0.94 0.87 0.89 0.92 0.93 0.91 0.95
0.25 0.32 0.39 0.43 0.34 0.34 0.57 0.58 0.52 0.52 0.45 0.48 0.58 0.58 0.51 0.54 0.60 0.61 0.66 0.67 0.53 0.41 0.40 0.40 0.39 0.38 0.37 0.36 0.36 0.40 0.49 0.63 0.82 0.95 0.98 0.91 0.84 0.83 0.88 0.91 0.87 0.88 0.91 0.92
0.24 0.32 0.43 0.47 0.48 0.72 0.88 0.73 0.60 0.56 0.38 0.34 0.38 0.39 0.41 0.51 0.55 0.55 0.52 0.51 0.50 0.39 0.30 0.28 0.29 0.31 0.36 0.36 0.40 0.44 0.51 0.56 0.62 0.66 0.70 0.69 0.69 0.72 0.80 0.84 0.82 0.89 0.93 0.89
0.26 0.40 0.54 0.59 0.68 0.82 0.82 0.68 0.68 0.68 0.53 0.33 0.34 0.33 0.29 0.29 0.31 0.32 0.31 0.29 0.28 0.26 0.22 0.20 0.20 0.21 0.25 0.26 0.28 0.29 0.31 0.33 0.36 0.36 0.39 0.44 0.49 0.52 0.55 0.58 0.67 0.80 0.88 0.90
0.27 0.38 0.58 0.64 0.76 0.88 0.67 0.41 0.41 0.58 0.74 0.31 0.26 0.26 0.21 0.19 0.26 0.26 0.25 0.25 0.22 0.20 0.22 0.21 0.18 0.18 0.20 0.22 0.25 0.24 0.24 0.25 0.25 0.25 0.27 0.31 0.35 0.38 0.41 0.47 0.54 0.62 0.66 0.74
0.37 0.43 0.52 0.59 0.80 0.93 0.65 0.43 0.40 0.71 0.76 0.28 0.21 0.20 0.18 0.18 0.18 0.17 0.20 0.22 0.20 0.19 0.20 0.22 0.21 0.20 0.20 0.24 0.26 0.25 0.25 0.27 0.30 0.31 0.32 0.33 0.33 0.35 0.40 0.45 0.49 0.54 0.59 0.69
0.40 0.51 0.57 0.69 1.02 1.15 0.82 0.60 0.61 0.57 0.30 0.20 0.16 0.16 0.17 0.17 0.15 0.16 0.18 0.19 0.17 0.17 0.18 0.20 0.21 0.23 0.24 0.24 0.25 0.26 0.26 0.28 0.32 0.34 0.35 0.36 0.36 0.39 0.42 0.47 0.52 0.56 0.61 0.64
0.36 0.41 0.50 0.66 0.91 0.85 0.70 0.57 0.45 0.37 0.28 0.18 0.15 0.15 0.18 0.19 0.18 0.20 0.21 0.18 0.18 0.17 0.16 0.17 0.20 0.19 0.20 0.22 0.22 0.23 0.27 0.29 0.31 0.33 0.34 0.38 0.39 0.40 0.41 0.46 0.52 0.57 0.60 0.62
0.30 0.28 0.35 0.41 0.46 0.42 0.38 0.35 0.28 0.24 0.23 0.19 0.18 0.20 0.23 0.24 0.23 0.21 0.21 0.21 0.19 0.18 0.16 0.15 0.19 0.21 0.21 0.22 0.23 0.26 0.28 0.27 0.28 0.34 0.37 0.38 0.39 0.41 0.43 0.47 0.51 0.55 0.59 0.62
0.27 0.30 0.33 0.35 0.31 0.27 0.24 0.25 0.23 0.19 0.16 0.16 0.18 0.22 0.23 0.24 0.24 0.21 0.21 0.23 0.21 0.19 0.19 0.21 0.23 0.24 0.24 0.25 0.27 0.31 0.34 0.31 0.29 0.32 0.35 0.35 0.37 0.41 0.44 0.47 0.49 0.51 0.56 0.66
0.19 0.26 0.35 0.36 0.26 0.26 0.27 0.23 0.19 0.18 0.16 0.15 0.16 0.17 0.19 0.21 0.23 0.23 0.21 0.22 0.24 0.24 0.25 0.26 0.26 0.27 0.28 0.27 0.30 0.33 0.37 0.39 0.38 0.37 0.35 0.34 0.36 0.40 0.43 0.45 0.46 0.50 0.53 0.63

GEFSCGP_prec_meanprecacc_366.txt.gz
Total_Precipitation_Accumulation
0.99 1.58 1.89 1.75 1.73 1.69 1.47 1.42 1.30 1.11 1.08 1.16 1.08 1.08 1.11 1.12 1.11 0.99 0.85 0.73 0.71 0.69 0.65 0.63 0.60 0.62 0.67 0.74 0.81 0.94 1.09 1.30 1.38 1.42 1.53 1.73 1.89 2.02 2.11 2.16 2.00 1.87 1.83 1.96
1.08 1.41 1.08 0.97 1.16 1.21 1.31 1.34 1.17 1.01 0.85 0.90 0.95 0.98 1.00 0.95 0.95 0.83 0.72 0.66 0.58 0.53 0.50 0.45 0.41 0.44 0.48 0.49 0.55 0.67 0.84 0.96 1.11 1.30 1.57 1.79 2.04 2.07 2.14 2.20 2.20 2.11 2.04 2.16
1.16 1.01 0.71 0.82 1.05 1.09 1.13 1.16 1.06 0.99 0.87 0.80 0.80 0.98 0.93 0.86 0.81 0.74 0.61 0.53 0.45 0.37 0.33 0.28 0.28 0.35 0.41 0.40 0.44 0.54 0.69 0.85 1.09 1.34 1.71 2.00 2.28 2.38 2.44 2.39 2.40 2.39 2.37 2.39
1.05 0.76 0.70 0.87 0.94 0.98 1.10 0.80 0.76 0.78 0.95 0.99 0.82 1.14 0.85 0.71 0.69 0.63 0.55 0.49 0.43 0.35 0.32 0.30 0.28 0.29 0.32 0.37 0.45 0.58 0.79 1.03 1.32 1.65 2.01 2.28 2.58 2.74 2.58 2.57 2.57 2.51 2.40 2.37
0.90 0.71 0.69 0.83 0.69 0.67 0.77 0.65 0.78 0.83 0.87 0.83 0.63 0.82 0.74 0.60 0.66 0.58 0.50 0.48 0.50 0.48 0.39 0.37 0.38 0.38 0.42 0.49 0.59 0.79 1.06 1.37 1.69 1.96 2.14 2.40 2.54 2.55 2.50 2.44 2.44 2.35 2.31 2.27
0.66 0.56 0.60 0.59 0.52 0.54 0.60 0.72 0.86 0.89 0.95 1.00 0.55 0.66 0.78 0.59 0.56 0.54 0.48 0.43 0.42 0.46 0.42 0.42 0.46 0.54 0.62 0.70 0.87 1.07 1.24 1.55 1.75 1.92 2.06 2.23 2.37 2.39 2.37 2.35 2.39 2.37 2.33 2.22
0.62 0.51 0.44 0.40 0.49 0.52 0.60 1.05 1.41 1.41 1.32 0.98 0.48 0.70 0.81 0.60 0.48 0.42 0.43 0.43 0.39 0.42 0.48 0.49 0.62 0.78 0.85 0.90 1.03 1.21 1.30 1.50 1.62 1.70 1.83 1.98 2.00 2.03 2.04 2.04 2.06 1.97 1.91 1.89
0.65 0.62 0.42 0.36 0.47 0.56 0.56 0.86 1.41 1.51 1.27 0.92 0.66 0.96 0.88 0.63 0.49 0.45 0.45 0.44 0.47 0.55 0.66 0.76 0.91 1.00 1.08 1.12 1.11 1.17 1.33 1.37 1.39 1.47 1.48 1.56 1.63 1.68 1.73 1.71 1.72 1.77 1.80 1.81
0.57 0.56 0.35 0.29 0.31 0.44 0.57 0.63 0.71 1.01 0.93 0.96 0.91 1.10 1.01 0.64 0.51 0.50 0.50 0.50 0.56 0.70 0.91 1.17 1.36 1.46 1.53 1.47 1.31 1.19 1.22 1.24 1.22 1.32 1.37 1.41 1.47 1.50 1.52 1.54 1.46 1.57 1.59 1.59
0.45 0.54 0.41 0.31 0.35 0.39 0.48 0.64 0.83 1.23 1.40 1.35 1.21 1.34 1.32 0.87 0.68 0.60 0.63 0.70 0.81 1.02 1.35 1.66 1.93 2.10 2.07 1.86 1.61 1.37 1.21 1.14 1.12 1.18 1.27 1.37 1.40 1.40 1.37 1.39 1.31 1.34 1.42 1.42
0.37 0.55 0.49 0.42 0.45 0.49 0.52 0.72 0.91 1.17 1.21 1.51 1.70 1.68 1.37 1.15 0.95 0.88 0.97 1.15 1.33 1.58 1.81 2.01 2.19 2.31 2.11 1.92 1.65 1.38 1.21 1.20 1.22 1.27 1.32 1.34 1.30 1.28 1.26 1.21 1.16 1.20 1.27 1.26
0.32 0.50 0.56 0.37 0.33 0.40 0.64 0.91 1.18 1.61 1.48 1.38 1.70 1.79 1.27 1.08 1.05 1.07 1.18 1.27 1.41 1.54 1.57 1.68 1.79 1.80 1.85 1.81 1.62 1.42 1.29 1.28 1.33 1.39 1.43 1.37 1.31 1.26 1.23 1.19 1.10 1.09 1.05 1.03
0.45 0.67 0.78 0.70 0.71 0.70 0.79 0.85 0.96 1.18 1.32 1.35 1.69 1.77 1.17 1.00 0.96 1.08 1.25 1.30 1.40 1.43 1.35 1.35 1.40 1.51 1.61 1.63 1.53 1.51 1.46 1.47 1.50 1.47 1.37 1.30 1.23 1.15 1.11 1.02 0.98 1.01 1.00 1.07
0.45 0.68 0.82 0.94 0.87 0.78 0.82 0.81 0.75 0.90 1.26 1.26 1.42 1.42 1.19 1.12 1.03 1.06 1.18 1.29 1.24 1.14 1.06 1.07 1.17 1.28 1.37 1.40 1.42 1.40 1.38 1.42 1.54 1.62 1.52 1.40 1.28 1.18 1.14 1.05 0.96 0.94 0.97 1.06
0.37 0.43 0.40 0.38 0.36 0.46 0.67 0.78 0.76 0.77 0.83 1.10 1.12 1.05 1.00 0.97 0.96 0.90 0.92 0.91 0.84 0.77 0.77 0.80 0.86 0.88 0.87 0.87 0.95 1.02 1.11 1.25 1.42 1.58 1.59 1.48 1.31 1.17 1.10 1.05 0.97 0.94 0.95 0.97
0.31 0.33 0.29 0.29 0.26 0.34 0.50 0.59 0.61 0.59 0.59 0.70 0.80 0.81 0.70 0.65 0.67 0.67 0.69 0.65 0.61 0.57 0.54 0.53 0.53 0.52 0.51 0.49 0.50 0.54 0.66 0.85 1.10 1.38 1.41 1.26 1.11 0.97 0.89 0.90 0.92 0.93 0.91 0.96
0.26 0.32 0.39 0.43 0.34 0.34 0.58 0.58 0.52 0.52 0.45 0.49 0.59 0.60 0.51 0.54 0.60 0.62 0.66 0.67 0.53 0.42 0.40 0.41 0.40 0.38 0.37 0.37 0.37 0.41 0.50 0.64 0.83 0.97 0.99 0.94 0.88 0.87 0.90 0.92 0.88 0.89 0.91 0.93
0.24 0.33 0.43 0.47 0.49 0.73 0.89 0.74 0.60 0.57 0.39 0.34 0.39 0.40 0.42 0.52 0.56 0.56 0.52 0.51 0.50 0.39 0.30 0.29 0.30 0.32 0.36 0.37 0.40 0.45 0.52 0.58 0.63 0.67 0.71 0.71 0.72 0.76 0.83 0.86 0.84 0.90 0.94 0.90
0.26 0.41 0.55 0.59 0.68 0.83 0.83 0.70 0.69 0.69 0.54 0.34 0.35 0.34 0.30 0.30 0.32 0.33 0.32 0.30 0.29 0.26 0.22 0.20 0.20 0.21 0.25 0.27 0.28 0.29 0.32 0.34 0.36 0.38 0.40 0.46 0.51 0.54 0.58 0.60 0.69 0.82 0.90 0.92
0.28 0.39 0.59 0.65 0.76 0.89 0.69 0.42 0.42 0.59 0.75 0.32 0.27 0.27 0.21 0.20 0.28 0.27 0.26 0.26 0.23 0.20 0.22 0.21 0.18 0.18 0.21 0.23 0.25 0.24 0.24 0.25 0.26 0.26 0.28 0.32 0.36 0.39 0.43 0.49 0.56 0.64 0.69 0.76
0.37 0.44 0.52 0.60 0.81 0.94 0.66 0.43 0.41 0.73 0.77 0.29 0.22 0.21 0.19 0.19 0.19 0.19 0.21 0.23 0.21 0.19 0.20 0.22 0.21 0.20 0.20 0.24 0.26 0.26 0.26 0.28 0.31 0.32 0.33 0.34 0.35 0.37 0.42 0.47 0.51 0.56 0.61 0.71
0.41 0.52 0.58 0.70 1.03 1.16 0.83 0.61 0.63 0.59 0.31 0.21 0.16 0.16 0.18 0.17 0.16 0.16 0.18 0.19 0.18 0.17 0.18 0.20 0.21 0.23 0.24 0.24 0.25 0.26 0.26 0.29 0.33 0.35 0.36 0.37 0.38 0.40 0.43 0.48 0.53 0.58 0.63 0.66
0.37 0.43 0.52 0.67 0.91 0.86 0.70 0.58 0.46 0.38 0.28 0.19 0.16 0.16 0.19 0.19 0.19 0.20 0.21 0.18 0.18 0.18 0.17 0.17 0.20 0.20 0.20 0.22 0.22 0.24 0.28 0.31 0.33 0.34 0.35 0.38 0.40 0.41 0.41 0.47 0.54 0.58 0.61 0.63
0.31 0.29 0.37 0.42 0.46 0.42 0.38 0.35 0.28 0.25 0.23 0.19 0.18 0.21 0.23 0.24 0.23 0.21 0.22 0.21 0.20 0.19 0.17 0.16 0.19 0.21 0.22 0.23 0.24 0.28 0.29 0.28 0.29 0.35 0.37 0.38 0.39 0.41 0.44 0.47 0.53 0.57 0.61 0.64
0.28 0.30 0.34 0.36 0.31 0.28 0.25 0.25 0.24 0.19 0.17 0.16 0.19 0.22 0.24 0.24 0.24 0.22 0.22 0.23 0.22 0.20 0.20 0.22 0.24 0.25 0.26 0.27 0.29 0.33 0.35 0.32 0.30 0.32 0.35 0.36 0.37 0.42 0.44 0.47 0.50 0.52 0.58 0.69
0.19 0.26 0.36 0.37 0.27 0.28 0.29 0.24 0.19 0.18 0.16 0.15 0.16 0.17 0.19 0.21 0.24 0.24 0.22 0.22 0.24 0.25 0.26 0.28 0.29 0.29 0.29 0.29 0.31 0.34 0.38 0.39 0.38 0.38 0.36 0.35 0.37 0.41 0.44 0.46 0.47 0.51 0.54 0.65

GEFSCGP_prec_meanprecacc_372.txt.gz
Total_Precipitation_Accumulation
1.00 1.59 1.90 1.76 1.74 1.69 1.47 1.43 1.31 1.12 1.08 1.16 1.10 1.10 1.12 1.12 1.11 0.99 0.86 0.73 0.71 0.69 0.65 0.63 0.60 0.62 0.67 0.75 0.82 0.94 1.09 1.31 1.39 1.44 1.55 1.76 1.91 2.03 2.12 2.16 2.01 1.87 1.83 1.96
1.10 1.42 1.08 0.98 1.17 1.22 1.31 1.35 1.19 1.02 0.86 0.91 0.97 1.01 1.01 0.95 0.95 0.83 0.73 0.66 0.58 0.53 0.50 0.45 0.41 0.44 0.48 0.49 0.56 0.68 0.85 0.97 1.12 1.31 1.59 1.81 2.06 2.09 2.15 2.21 2.20 2.12 2.05 2.17
1.17 1.01 0.71 0.83 1.06 1.10 1.13 1.17 1.06 1.00 0.88 0.81 0.82 1.02 0.96 0.88 0.82 0.75 0.62 0.53 0.45 0.39 0.34 0.28 0.28 0.35 0.41 0.41 0.45 0.55 0.70 0.86 1.11 1.36 1.73 2.02 2.30 2.39 2.45 2.41 2.41 2.39 2.37 2.39
1.05 0.76 0.71 0.88 0.94 0.98 1.11 0.80 0.76 0.79 0.98 1.01 0.83 1.17 0.88 0.73 0.71 0.64 0.55 0.50 0.43 0.36 0.33 0.31 0.29 0.29 0.33 0.38 0.46 0.59 0.81 1.05 1.34 1.67 2.03 2.29 2.59 2.75 2.59 2.58 2.59 2.52 2.40 2.37
0.90 0.71 0.70 0.84 0.70 0.68 0.78 0.65 0.78 0.84 0.88 0.84 0.64 0.84 0.75 0.62 0.67 0.59 0.50 0.48 0.50 0.48 0.39 0.37 0.38 0.39 0.43 0.50 0.60 0.79 1.07 1.39 1.71 1.99 2.16 2.41 2.54 2.56 2.51 2.45 2.45 2.35 2.31 2.27
0.66 0.56 0.60 0.60 0.53 0.55 0.61 0.74 0.87 0.90 0.97 1.02 0.56 0.68 0.79 0.60 0.56 0.54 0.48 0.43 0.42 0.46 0.42 0.42 0.46 0.54 0.62 0.70 0.87 1.07 1.25 1.55 1.75 1.93 2.08 2.26 2.39 2.40 2.37 2.35 2.40 2.38 2.33 2.22
0.63 0.52 0.44 0.40 0.51 0.53 0.62 1.07 1.43 1.43 1.34 0.99 0.48 0.71 0.82 0.61 0.48 0.42 0.43 0.43 0.39 0.42 0.48 0.49 0.62 0.78 0.86 0.91 1.04 1.22 1.30 1.51 1.63 1.70 1.84 2.00 2.03 2.04 2.06 2.05 2.07 1.98 1.92 1.90
0.67 0.63 0.42 0.37 0.48 0.58 0.57 0.89 1.43 1.53 1.28 0.93 0.66 0.97 0.88 0.63 0.49 0.45 0.45 0.44 0.47 0.55 0.66 0.76 0.91 1.00 1.08 1.12 1.12 1.19 1.34 1.38 1.40 1.47 1.49 1.58 1.64 1.69 1.74 1.72 1.73 1.78 1.80 1.81
0.58 0.56 0.35 0.29 0.31 0.45 0.59 0.65 0.73 1.03 0.94 0.98 0.92 1.11 1.02 0.64 0.51 0.50 0.50 0.50 0.56 0.70 0.91 1.17 1.37 1.47 1.54 1.48 1.32 1.20 1.24 1.26 1.24 1.33 1.38 1.42 1.48 1.51 1.53 1.55 1.47 1.59 1.61 1.60
0.46 0.55 0.41 0.31 0.36 0.39 0.49 0.66 0.86 1.25 1.42 1.37 1.21 1.35 1.33 0.88 0.69 0.60 0.63 0.71 0.82 1.02 1.36 1.66 1.93 2.10 2.08 1.86 1.61 1.38 1.23 1.16 1.14 1.19 1.28 1.37 1.40 1.40 1.37 1.40 1.32 1.35 1.44 1.43
0.39 0.56 0.50 0.42 0.45 0.49 0.53 0.74 0.94 1.21 1.23 1.53 1.72 1.70 1.38 1.15 0.95 0.88 0.97 1.15 1.33 1.58 1.83 2.02 2.19 2.31 2.12 1.93 1.66 1.39 1.22 1.21 1.24 1.29 1.34 1.35 1.30 1.29 1.27 1.22 1.16 1.20 1.28 1.27
0.34 0.52 0.57 0.38 0.33 0.40 0.64 0.92 1.19 1.64 1.51 1.40 1.72 1.81 1.27 1.08 1.05 1.07 1.18 1.27 1.41 1.54 1.57 1.70 1.80 1.81 1.85 1.81 1.63 1.44 1.31 1.29 1.34 1.41 1.46 1.40 1.32 1.27 1.24 1.20 1.11 1.09 1.05 1.03
0.46 0.69 0.79 0.72 0.72 0.71 0.79 0.86 0.96 1.18 1.33 1.37 1.71 1.78 1.17 1.00 0.96 1.08 1.25 1.30 1.40 1.43 1.35 1.36 1.42 1.52 1.62 1.63 1.54 1.52 1.48 1.49 1.51 1.48 1.40 1.34 1.27 1.17 1.12 1.04 0.99 1.02 1.01 1.08
0.45 0.69 0.83 0.95 0.89 0.79 0.83 0.81 0.75 0.90 1.27 1.27 1.44 1.44 1.19 1.13 1.04 1.06 1.19 1.29 1.24 1.14 1.07 1.08 1.18 1.30 1.38 1.41 1.43 1.41 1.39 1.43 1.55 1.64 1.54 1.43 1.34 1.23 1.17 1.07 0.97 0.95 0.98 1.07
0.37 0.43 0.41 0.38 0.36 0.46 0.68 0.79 0.77 0.77 0.84 1.11 1.13 1.06 1.01 0.98 0.97 0.91 0.92 0.92 0.84 0.78 0.77 0.81 0.87 0.89 0.88 0.88 0.96 1.03 1.12 1.26 1.43 1.60 1.61 1.49 1.34 1.23 1.16 1.08 0.99 0.95 0.96 0.97
0.31 0.34 0.29 0.29 0.26 0.34 0.51 0.60 0.62 0.59 0.60 0.70 0.80 0.82 0.71 0.67 0.68 0.68 0.69 0.65 0.61 0.57 0.54 0.53 0.53 0.52 0.51 0.49 0.51 0.55 0.67 0.86 1.11 1.39 1.42 1.27 1.13 1.00 0.95 0.97 0.96 0.95 0.92 0.96
0.26 0.32 0.39 0.43 0.34 0.36 0.60 0.60 0.53 0.53 0.45 0.49 0.60 0.61 0.53 0.55 0.62 0.63 0.67 0.68 0.53 0.42 0.40 0.41 0.41 0.39 0.37 0.37 0.37 0.42 0.51 0.66 0.85 0.98 1.00 0.95 0.90 0.89 0.94 0.99 0.95 0.93 0.93 0.94
0.24 0.33 0.44 0.47 0.49 0.74 0.91 0.75 0.62 0.58 0.39 0.35 0.40 0.42 0.43 0.54 0.57 0.57 0.54 0.53 0.51 0.39 0.30 0.29 0.31 0.32 0.37 0.37 0.41 0.46 0.53 0.59 0.65 0.69 0.73 0.72 0.73 0.78 0.86 0.90 0.90 0.97 0.99 0.92
0.26 0.41 0.56 0.60 0.70 0.84 0.84 0.70 0.70 0.70 0.55 0.34 0.37 0.36 0.31 0.32 0.34 0.35 0.34 0.31 0.30 0.26 0.23 0.20 0.21 0.22 0.26 0.27 0.29 0.30 0.32 0.35 0.37 0.39 0.42 0.47 0.52 0.55 0.60 0.64 0.73 0.88 0.96 0.97
0.28 0.39 0.60 0.66 0.78 0.90 0.70 0.42 0.43 0.60 0.76 0.33 0.29 0.29 0.22 0.20 0.29 0.29 0.27 0.27 0.23 0.20 0.22 0.22 0.19 0.19 0.21 0.23 0.26 0.24 0.24 0.26 0.27 0.27 0.30 0.34 0.38 0.41 0.44 0.52 0.59 0.69 0.75 0.84
0.37 0.44 0.53 0.61 0.81 0.95 0.67 0.44 0.42 0.74 0.79 0.30 0.24 0.22 0.20 0.20 0.20 0.20 0.22 0.23 0.21 0.19 0.20 0.22 0.22 0.21 0.21 0.25 0.27 0.27 0.27 0.28 0.32 0.33 0.34 0.36 0.37 0.39 0.44 0.49 0.55 0.60 0.67 0.78
0.41 0.53 0.58 0.71 1.05 1.17 0.83 0.61 0.63 0.60 0.32 0.22 0.18 0.17 0.18 0.18 0.16 0.16 0.19 0.20 0.19 0.18 0.18 0.20 0.22 0.23 0.24 0.25 0.26 0.27 0.27 0.30 0.34 0.36 0.38 0.39 0.40 0.43 0.46 0.51 0.57 0.61 0.67 0.71
0.38 0.43 0.53 0.68 0.93 0.86 0.71 0.58 0.46 0.38 0.29 0.20 0.17 0.17 0.19 0.20 0.19 0.21 0.21 0.19 0.19 0.19 0.18 0.18 0.21 0.20 0.21 0.22 0.23 0.25 0.29 0.32 0.35 0.38 0.39 0.41 0.42 0.44 0.44 0.49 0.56 0.61 0.64 0.67
0.32 0.29 0.37 0.43 0.47 0.42 0.39 0.36 0.29 0.25 0.24 0.20 0.19 0.21 0.23 0.25 0.23 0.22 0.22 0.22 0.20 0.20 0.18 0.17 0.20 0.22 0.22 0.23 0.25 0.29 0.31 0.30 0.31 0.38 0.40 0.41 0.42 0.43 0.46 0.48 0.54 0.58 0.62 0.65
0.28 0.31 0.34 0.37 0.32 0.28 0.26 0.26 0.24 0.19 0.17 0.17 0.19 0.22 0.24 0.25 0.25 0.22 0.22 0.24 0.23 0.20 0.20 0.23 0.26 0.27 0.28 0.28 0.31 0.36 0.38 0.34 0.32 0.34 0.37 0.38 0.39 0.43 0.46 0.48 0.50 0.53 0.58 0.70
0.20 0.27 0.37 0.38 0.27 0.29 0.29 0.25 0.19 0.18 0.16 0.15 0.16 0.17 0.19 0.21 0.24 0.24 0.22 0.23 0.25 0.25 0.26 0.28 0.30 0.32 0.32 0.31 0.33 0.36 0.40 0.41 0.39 0.39 0.37 0.36 0.38 0.42 0.45 0.47 0.47 0.51 0.54 0.65

GEFSCGP_prec_meanprecacc_378.txt.gz
Total_Precipitation_Accumulation
1.02 1.60 1.91 1.76 1.75 1.70 1.49 1.44 1.32 1.13 1.09 1.17 1.10 1.10 1.13 1.14 1.12 1.00 0.86 0.74 0.72 0.71 0.67 0.64 0.62 0.64 0.69 0.77 0.84 0.97 1.12 1.34 1.44 1.49 1.59 1.79 1.94 2.04 2.12 2.16 2.01 1.88 1.83 1.96
1.11 1.43 1.09 0.98 1.18 1.24 1.34 1.36 1.19 1.02 0.87 0.92 0.98 1.02 1.03 0.97 0.96 0.84 0.73 0.67 0.59 0.54 0.51 0.47 0.43 0.46 0.50 0.51 0.58 0.71 0.88 0.99 1.14 1.33 1.61 1.84 2.09 2.11 2.17 2.22 2.21 2.12 2.05 2.17
1.18 1.02 0.72 0.83 1.06 1.11 1.16 1.19 1.08 1.01 0.90 0.83 0.84 1.03 0.98 0.90 0.84 0.76 0.63 0.54 0.46 0.40 0.36 0.30 0.30 0.37 0.42 0.43 0.47 0.59 0.74 0.91 1.14 1.39 1.76 2.05 2.32 2.41 2.46 2.41 2.42 2.40 2.38 2.40
1.06 0.76 0.71 0.88 0.94 0.99 1.12 0.82 0.78 0.81 1.00 1.04 0.85 1.18 0.89 0.75 0.73 0.67 0.58 0.52 0.44 0.38 0.37 0.33 0.30 0.30 0.34 0.39 0.48 0.62 0.85 1.10 1.39 1.73 2.08 2.33 2.62 2.77 2.60 2.59 2.60 2.54 2.41 2.39
0.92 0.71 0.70 0.84 0.70 0.68 0.79 0.66 0.80 0.86 0.91 0.87 0.66 0.85 0.76 0.63 0.71 0.62 0.52 0.49 0.51 0.49 0.40 0.39 0.39 0.40 0.43 0.51 0.61 0.81 1.09 1.41 1.74 2.03 2.20 2.45 2.58 2.60 2.54 2.47 2.47 2.38 2.33 2.29
0.68 0.57 0.61 0.60 0.53 0.55 0.62 0.75 0.89 0.92 0.99 1.04 0.58 0.70 0.80 0.61 0.58 0.57 0.49 0.43 0.42 0.47 0.43 0.43 0.47 0.54 0.63 0.71 0.89 1.09 1.27 1.58 1.78 1.96 2.12 2.30 2.44 2.46 2.42 2.39 2.43 2.41 2.36 2.24
0.64 0.53 0.45 0.40 0.51 0.54 0.63 1.09 1.45 1.45 1.36 1.01 0.49 0.72 0.82 0.61 0.48 0.44 0.45 0.43 0.39 0.42 0.48 0.49 0.62 0.79 0.86 0.91 1.04 1.23 1.32 1.53 1.65 1.74 1.87 2.03 2.07 2.09 2.09 2.08 2.10 2.01 1.95 1.92
0.67 0.64 0.43 0.37 0.48 0.60 0.59 0.91 1.46 1.55 1.30 0.95 0.67 0.97 0.89 0.64 0.51 0.46 0.46 0.45 0.47 0.55 0.66 0.77 0.91 1.00 1.09 1.12 1.12 1.19 1.35 1.39 1.42 1.50 1.52 1.61 1.67 1.71 1.76 1.74 1.75 1.79 1.82 1.83
0.59 0.57 0.36 0.29 0.32 0.47 0.62 0.67 0.75 1.06 0.97 0.99 0.93 1.12 1.03 0.65 0.53 0.51 0.51 0.52 0.57 0.71 0.92 1.17 1.37 1.47 1.54 1.48 1.32 1.20 1.25 1.26 1.25 1.35 1.40 1.45 1.51 1.53 1.54 1.56 1.48 1.59 1.62 1.61
0.47 0.56 0.42 0.31 0.36 0.41 0.52 0.69 0.88 1.28 1.45 1.39 1.23 1.37 1.34 0.89 0.70 0.61 0.64 0.72 0.83 1.03 1.37 1.66 1.93 2.10 2.08 1.87 1.62 1.39 1.23 1.17 1.15 1.21 1.30 1.40 1.43 1.44 1.40 1.42 1.33 1.36 1.45 1.45
0.40 0.57 0.51 0.43 0.46 0.50 0.55 0.76 0.96 1.24 1.26 1.56 1.74 1.72 1.40 1.17 0.96 0.89 0.97 1.16 1.34 1.59 1.84 2.04 2.21 2.33 2.12 1.93 1.66 1.40 1.22 1.22 1.25 1.30 1.35 1.38 1.33 1.32 1.30 1.25 1.19 1.22 1.29 1.29
0.34 0.53 0.58 0.39 0.34 0.40 0.67 0.95 1.22 1.67 1.53 1.42 1.74 1.83 1.29 1.10 1.06 1.07 1.18 1.27 1.41 1.54 1.58 1.73 1.84 1.84 1.87 1.82 1.63 1.44 1.31 1.30 1.35 1.41 1.46 1.41 1.35 1.30 1.27 1.23 1.15 1.12 1.08 1.05
0.47 0.70 0.81 0.72 0.73 0.71 0.81 0.90 1.00 1.22 1.36 1.39 1.73 1.80 1.19 1.01 0.96 1.08 1.25 1.30 1.40 1.43 1.35 1.37 1.44 1.54 1.64 1.65 1.55 1.52 1.48 1.49 1.51 1.49 1.40 1.35 1.28 1.19 1.14 1.06 1.02 1.05 1.04 1.10
0.46 0.70 0.85 0.96 0.90 0.80 0.84 0.83 0.78 0.93 1.30 1.29 1.45 1.46 1.22 1.14 1.05 1.07 1.19 1.29 1.24 1.14 1.07 1.09 1.20 1.32 1.41 1.43 1.45 1.42 1.39 1.44 1.55 1.64 1.55 1.44 1.35 1.25 1.19 1.09 1.00 0.97 1.00 1.09
0.38 0.44 0.42 0.39 0.37 0.47 0.69 0.80 0.79 0.79 0.86 1.14 1.16 1.08 1.03 1.00 0.98 0.91 0.92 0.92 0.84 0.78 0.78 0.82 0.88 0.92 0.91 0.91 0.99 1.05 1.14 1.27 1.44 1.60 1.61 1.50 1.35 1.24 1.18 1.11 1.01 0.97 0.98 1.00
0.33 0.35 0.31 0.31 0.28 0.36 0.52 0.62 0.64 0.60 0.61 0.72 0.83 0.84 0.72 0.68 0.70 0.70 0.71 0.66 0.62 0.57 0.55 0.54 0.54 0.55 0.53 0.52 0.54 0.57 0.69 0.87 1.12 1.40 1.43 1.28 1.14 1.02 0.97 0.99 0.99 0.98 0.95 0.99
0.27 0.34 0.42 0.46 0.36 0.37 0.62 0.61 0.54 0.54 0.46 0.50 0.61 0.62 0.54 0.56 0.63 0.64 0.68 0.69 0.54 0.42 0.41 0.43 0.42 0.41 0.39 0.38 0.39 0.43 0.53 0.69 0.87 1.00 1.02 0.97 0.92 0.91 0.96 1.01 0.98 0.97 0.97 0.98
0.25 0.34 0.46 0.49 0.50 0.76 0.94 0.77 0.62 0.59 0.40 0.36 0.41 0.42 0.44 0.54 0.58 0.58 0.54 0.54 0.52 0.41 0.31 0.30 0.33 0.34 0.38 0.38 0.42 0.46 0.54 0.61 0.68 0.71 0.75 0.75 0.76 0.81 0.89 0.92 0.92 0.99 1.03 0.97
0.27 0.42 0.56 0.61 0.70 0.85 0.85 0.71 0.71 0.70 0.55 0.35 0.37 0.36 0.31 0.32 0.34 0.35 0.35 0.32 0.31 0.28 0.24 0.21 0.22 0.23 0.27 0.29 0.30 0.30 0.33 0.36 0.39 0.41 0.44 0.49 0.55 0.59 0.63 0.67 0.76 0.90 0.98 1.00
0.28 0.39 0.60 0.67 0.78 0.90 0.70 0.43 0.44 0.60 0.77 0.33 0.30 0.29 0.23 0.21 0.30 0.30 0.27 0.28 0.25 0.21 0.24 0.23 0.21 0.21 0.24 0.25 0.27 0.25 0.25 0.27 0.28 0.28 0.32 0.36 0.41 0.45 0.48 0.55 0.63 0.72 0.78 0.87
0.38 0.45 0.53 0.61 0.82 0.95 0.68 0.44 0.42 0.75 0.80 0.31 0.25 0.23 0.20 0.20 0.21 0.21 0.23 0.24 0.22 0.21 0.22 0.24 0.24 0.23 0.24 0.27 0.28 0.28 0.28 0.29 0.32 0.34 0.35 0.37 0.39 0.41 0.47 0.53 0.59 0.64 0.71 0.81
0.43 0.54 0.59 0.72 1.06 1.18 0.84 0.62 0.64 0.61 0.32 0.22 0.18 0.17 0.19 0.18 0.16 0.17 0.19 0.21 0.19 0.18 0.19 0.22 0.24 0.26 0.27 0.27 0.28 0.29 0.28 0.30 0.34 0.37 0.39 0.41 0.42 0.45 0.48 0.54 0.60 0.64 0.69 0.73
0.40 0.46 0.54 0.70 0.95 0.89 0.72 0.59 0.47 0.39 0.29 0.20 0.17 0.17 0.19 0.20 0.19 0.21 0.22 0.19 0.19 0.20 0.18 0.19 0.22 0.22 0.23 0.25 0.26 0.27 0.31 0.34 0.37 0.39 0.40 0.44 0.45 0.47 0.47 0.51 0.58 0.63 0.66 0.70
0.33 0.31 0.39 0.46 0.50 0.44 0.39 0.37 0.29 0.25 0.24 0.21 0.19 0.21 0.23 0.25 0.23 0.22 0.22 0.22 0.20 0.20 0.18 0.18 0.21 0.23 0.24 0.25 0.27 0.32 0.34 0.32 0.33 0.39 0.42 0.43 0.43 0.45 0.48 0.51 0.55 0.60 0.64 0.67
0.30 0.33 0.36 0.39 0.33 0.29 0.26 0.27 0.24 0.19 0.17 0.17 0.19 0.22 0.24 0.25 0.25 0.22 0.22 0.24 0.23 0.20 0.21 0.24 0.27 0.29 0.29 0.31 0.34 0.39 0.41 0.36 0.34 0.36 0.39 0.39 0.41 0.45 0.48 0.49 0.52 0.54 0.59 0.71
0.21 0.29 0.40 0.41 0.29 0.30 0.30 0.25 0.20 0.18 0.17 0.16 0.17 0.18 0.19 0.22 0.24 0.24 0.22 0.23 0.25 0.25 0.26 0.29 0.31 0.34 0.34 0.34 0.36 0.38 0.42 0.43 0.42 0.41 0.39 0.38 0.40 0.43 0.46 0.48 0.49 0.52 0.55 0.66

GEFSCGP_prec_meanprecacc_384.txt.gz
Total_Precipitation_Accumulation
1.02 1.61 1.91 1.77 1.75 1.71 1.50 1.45 1.32 1.13 1.09 1.18 1.11 1.11 1.13 1.14 1.13 1.00 0.87 0.75 0.73 0.72 0.68 0.65 0.63 0.65 0.70 0.78 0.86 1.00 1.15 1.36 1.47 1.52 1.62 1.83 1.97 2.06 2.13 2.17 2.02 1.90 1.86 1.99
1.12 1.44 1.09 0.98 1.18 1.24 1.35 1.38 1.20 1.03 0.87 0.93 0.99 1.02 1.03 0.98 0.96 0.85 0.74 0.68 0.61 0.55 0.53 0.49 0.44 0.47 0.51 0.53 0.60 0.73 0.90 1.02 1.16 1.36 1.65 1.89 2.14 2.15 2.19 2.24 2.22 2.14 2.06 2.18
1.18 1.03 0.72 0.83 1.06 1.11 1.17 1.21 1.09 1.02 0.91 0.84 0.85 1.03 0.99 0.91 0.84 0.77 0.64 0.55 0.47 0.41 0.38 0.32 0.31 0.38 0.44 0.44 0.49 0.61 0.76 0.93 1.17 1.42 1.80 2.09 2.37 2.45 2.50 2.45 2.44 2.41 2.39 2.41
1.06 0.76 0.71 0.88 0.95 0.99 1.13 0.83 0.79 0.82 1.01 1.05 0.86 1.18 0.89 0.75 0.74 0.67 0.59 0.53 0.46 0.40 0.38 0.34 0.31 0.32 0.35 0.41 0.50 0.64 0.87 1.12 1.42 1.76 2.12 2.39 2.67 2.82 2.64 2.63 2.63 2.56 2.44 2.40
0.92 0.71 0.70 0.84 0.70 0.68 0.79 0.67 0.81 0.88 0.93 0.88 0.67 0.85 0.76 0.63 0.72 0.62 0.52 0.50 0.53 0.51 0.42 0.40 0.40 0.41 0.45 0.53 0.63 0.82 1.10 1.43 1.77 2.06 2.25 2.52 2.64 2.66 2.59 2.52 2.51 2.41 2.36 2.30
0.69 0.58 0.61 0.60 0.53 0.55 0.62 0.75 0.90 0.94 1.01 1.05 0.58 0.70 0.80 0.61 0.58 0.57 0.49 0.43 0.43 0.48 0.44 0.44 0.48 0.56 0.64 0.72 0.89 1.10 1.28 1.59 1.80 1.98 2.15 2.35 2.50 2.52 2.47 2.43 2.45 2.44 2.38 2.26
0.64 0.53 0.46 0.41 0.52 0.55 0.64 1.09 1.46 1.47 1.37 1.02 0.49 0.72 0.83 0.61 0.49 0.44 0.45 0.43 0.40 0.43 0.49 0.51 0.63 0.81 0.88 0.93 1.05 1.24 1.33 1.54 1.67 1.76 1.89 2.05 2.10 2.13 2.13 2.12 2.12 2.03 1.97 1.94
0.68 0.64 0.43 0.38 0.49 0.61 0.60 0.91 1.47 1.57 1.32 0.95 0.68 0.98 0.89 0.65 0.51 0.46 0.47 0.46 0.48 0.56 0.67 0.77 0.92 1.02 1.11 1.15 1.14 1.20 1.36 1.40 1.43 1.51 1.53 1.63 1.69 1.74 1.79 1.77 1.77 1.81 1.84 1.85
0.60 0.57 0.36 0.30 0.32 0.48 0.63 0.68 0.75 1.07 0.99 1.01 0.94 1.12 1.04 0.66 0.54 0.52 0.52 0.52 0.57 0.71 0.92 1.17 1.38 1.48 1.55 1.50 1.34 1.22 1.25 1.27 1.26 1.36 1.42 1.46 1.52 1.56 1.58 1.60 1.51 1.62 1.64 1.63
0.48 0.56 0.42 0.32 0.37 0.41 0.53 0.70 0.89 1.30 1.47 1.41 1.23 1.39 1.36 0.90 0.71 0.63 0.65 0.73 0.84 1.04 1.37 1.68 1.95 2.12 2.09 1.88 1.63 1.40 1.24 1.17 1.16 1.21 1.31 1.41 1.44 1.46 1.43 1.47 1.38 1.39 1.48 1.48
0.41 0.58 0.52 0.43 0.46 0.50 0.56 0.76 0.98 1.25 1.28 1.58 1.75 1.73 1.42 1.19 0.98 0.91 0.98 1.16 1.34 1.60 1.84 2.05 2.23 2.34 2.14 1.95 1.67 1.40 1.22 1.22 1.25 1.30 1.36 1.38 1.33 1.33 1.32 1.28 1.23 1.27 1.35 1.34
0.35 0.54 0.59 0.40 0.35 0.41 0.67 0.96 1.23 1.68 1.55 1.44 1.75 1.83 1.30 1.11 1.07 1.09 1.19 1.27 1.41 1.55 1.59 1.73 1.84 1.85 1.89 1.84 1.65 1.45 1.31 1.30 1.35 1.41 1.47 1.41 1.35 1.30 1.28 1.25 1.17 1.15 1.12 1.11
0.48 0.71 0.82 0.74 0.74 0.72 0.82 0.90 1.01 1.23 1.38 1.41 1.74 1.81 1.20 1.02 0.97 1.09 1.25 1.31 1.40 1.43 1.35 1.38 1.44 1.55 1.65 1.67 1.57 1.55 1.49 1.49 1.51 1.49 1.40 1.35 1.28 1.19 1.15 1.07 1.03 1.06 1.06 1.14
0.48 0.72 0.86 0.97 0.91 0.81 0.85 0.84 0.79 0.94 1.31 1.30 1.47 1.48 1.24 1.17 1.07 1.08 1.19 1.29 1.24 1.15 1.08 1.09 1.20 1.32 1.42 1.44 1.47 1.45 1.42 1.46 1.56 1.64 1.55 1.44 1.35 1.25 1.19 1.09 1.00 0.98 1.01 1.11
0.40 0.46 0.44 0.41 0.38 0.48 0.69 0.81 0.79 0.79 0.87 1.15 1.18 1.10 1.07 1.04 1.01 0.93 0.94 0.93 0.85 0.78 0.78 0.82 0.89 0.92 0.92 0.91 1.01 1.08 1.17 1.30 1.45 1.61 1.62 1.50 1.36 1.25 1.18 1.12 1.02 0.98 0.99 1.01
0.34 0.37 0.33 0.33 0.30 0.37 0.53 0.63 0.65 0.61 0.62 0.73 0.84 0.86 0.75 0.72 0.72 0.71 0.72 0.67 0.62 0.58 0.55 0.54 0.55 0.55 0.53 0.52 0.54 0.59 0.72 0.91 1.16 1.41 1.44 1.29 1.15 1.02 0.97 0.99 1.00 0.98 0.95 1.00
0.28 0.35 0.43 0.48 0.39 0.39 0.64 0.63 0.56 0.55 0.48 0.51 0.63 0.65 0.55 0.59 0.64 0.65 0.70 0.70 0.55 0.43 0.41 0.43 0.43 0.41 0.40 0.39 0.39 0.44 0.55 0.72 0.91 1.03 1.04 0.98 0.92 0.91 0.97 1.02 0.98 0.97 0.98 0.98
0.25 0.35 0.48 0.52 0.54 0.79 0.97 0.78 0.64 0.60 0.42 0.37 0.42 0.43 0.45 0.56 0.59 0.59 0.56 0.55 0.54 0.42 0.32 0.31 0.34 0.35 0.39 0.39 0.42 0.47 0.55 0.63 0.72 0.76 0.78 0.76 0.78 0.82 0.90 0.94 0.93 1.00 1.04 0.98
0.27 0.43 0.59 0.64 0.73 0.88 0.88 0.73 0.73 0.74 0.59 0.37 0.39 0.38 0.34 0.34 0.35 0.36 0.36 0.33 0.32 0.29 0.25 0.22 0.23 0.24 0.28 0.30 0.31 0.32 0.34 0.37 0.41 0.45 0.49 0.53 0.57 0.61 0.65 0.69 0.78 0.92 1.00 1.02
0.29 0.40 0.62 0.69 0.79 0.92 0.72 0.44 0.45 0.63 0.79 0.35 0.32 0.31 0.24 0.22 0.31 0.31 0.28 0.29 0.26 0.22 0.24 0.24 0.21 0.21 0.25 0.27 0.29 0.27 0.27 0.28 0.29 0.30 0.34 0.40 0.44 0.47 0.50 0.58 0.66 0.75 0.80 0.89
0.39 0.46 0.54 0.62 0.83 0.97 0.69 0.45 0.43 0.76 0.81 0.32 0.25 0.23 0.21 0.21 0.22 0.21 0.23 0.25 0.23 0.21 0.22 0.25 0.25 0.23 0.25 0.28 0.29 0.29 0.29 0.31 0.34 0.36 0.37 0.39 0.41 0.43 0.49 0.56 0.61 0.68 0.74 0.84
0.44 0.56 0.61 0.73 1.08 1.21 0.87 0.64 0.66 0.63 0.33 0.23 0.19 0.18 0.19 0.19 0.17 0.17 0.20 0.22 0.20 0.19 0.20 0.22 0.24 0.26 0.28 0.28 0.29 0.30 0.30 0.32 0.37 0.39 0.41 0.42 0.43 0.47 0.51 0.57 0.63 0.67 0.72 0.75
0.41 0.48 0.57 0.73 0.98 0.92 0.75 0.62 0.49 0.40 0.30 0.21 0.18 0.17 0.20 0.20 0.20 0.22 0.22 0.20 0.20 0.20 0.19 0.20 0.22 0.23 0.24 0.26 0.27 0.29 0.34 0.37 0.39 0.40 0.42 0.45 0.46 0.48 0.49 0.54 0.61 0.66 0.68 0.71
0.34 0.32 0.41 0.48 0.52 0.46 0.41 0.38 0.30 0.26 0.25 0.21 0.20 0.22 0.24 0.25 0.24 0.22 0.22 0.22 0.21 0.20 0.19 0.18 0.21 0.24 0.24 0.26 0.28 0.34 0.37 0.37 0.37 0.41 0.44 0.44 0.45 0.46 0.49 0.52 0.57 0.62 0.66 0.68
0.31 0.34 0.39 0.42 0.36 0.31 0.28 0.28 0.25 0.20 0.18 0.17 0.20 0.23 0.25 0.25 0.25 0.23 0.22 0.24 0.23 0.21 0.21 0.24 0.27 0.29 0.29 0.31 0.34 0.40 0.44 0.41 0.38 0.39 0.41 0.41 0.43 0.47 0.49 0.50 0.53 0.55 0.60 0.72
0.22 0.30 0.42 0.43 0.31 0.32 0.32 0.26 0.21 0.19 0.17 0.16 0.18 0.18 0.20 0.22 0.24 0.25 0.22 0.23 0.25 0.25 0.27 0.29 0.31 0.34 0.35 0.34 0.37 0.40 0.44 0.46 0.45 0.45 0.42 0.40 0.41 0.44 0.47 0.49 0.49 0.53 0.56 0.66